DateTimeUTC,F1_A11,F1_S11,BsB_S11,BsG_S11,BsR_S11,BbsB_S11,BbsG_S11,BbsR_S11,BaB_A11,BaG_A11,BaR_A11,Tu_S11,T_S11,Uu_S11,U_S11,P_S11,T1_A11
2021-08-23T16:00:00Z,00000200,20000000,,,,,,,-000.25,0000.00,-000.62,19.8,26.4,07.5,05.0,0676.3,31.1
2021-08-23T16:01:00Z,00000200,20000000,,,,,,,0000.24,-000.32,0000.18,19.8,26.4,07.5,05.0,0676.3,31.0
2021-08-23T16:02:00Z,00000200,20000000,,,,,,,-000.53,0000.15,0000.10,19.8,26.4,07.5,05.0,0676.3,31.1
2021-08-23T16:03:00Z,00000200,60000000,,,,,,,0001.12,0001.21,0000.83,19.8,26.4,07.5,05.0,0676.3,31.1
2021-08-23T16:04:00Z,00000200,40000000,0006.56,0005.13,0003.37,0000.76,0000.71,0000.18,0001.40,0001.17,0001.07,19.9,26.3,07.2,04.9,0677.3,31.0
2021-08-23T16:05:00Z,00000200,00000000,0005.78,0005.06,0003.37,0000.87,0000.46,0000.15,0001.28,0000.84,0000.69,20.0,26.3,07.2,04.9,0677.4,31.1
2021-08-23T16:06:00Z,00000200,00000000,0006.59,0005.39,0003.54,0001.05,0000.50,0000.33,0001.39,0001.58,0001.10,20.0,26.3,07.1,04.9,0677.4,31.1
2021-08-23T16:07:00Z,00000200,00000000,0006.28,0005.10,0003.05,0000.95,0000.82,0000.15,0001.09,0001.25,0000.99,20.0,26.2,07.1,04.9,0677.4,31.1
2021-08-23T16:08:00Z,00000200,00000000,0006.11,0005.27,0003.72,0000.17,0000.71,0000.57,0001.60,0001.20,0001.25,20.0,26.3,07.0,04.8,0677.3,31.1
2021-08-23T16:09:00Z,00000200,00000000,0006.52,0005.23,0003.31,-000.08,0000.43,0000.34,0001.64,0001.62,0001.27,20.0,26.3,07.2,04.9,0677.3,31.1
2021-08-23T16:10:00Z,00000200,00000000,0006.81,0005.02,0003.15,0000.34,0000.65,0000.45,0001.29,0001.06,0000.76,20.0,26.3,07.2,05.0,0677.4,31.1
2021-08-23T16:11:00Z,00000200,00000000,0007.15,0005.37,0003.67,0000.81,0000.73,0000.72,0001.16,0001.21,0001.32,20.0,26.3,07.2,04.9,0677.4,31.1
2021-08-23T16:12:00Z,00000200,00000000,0006.80,0005.01,0003.52,-000.24,0000.85,0000.44,0001.50,0000.72,0000.61,20.0,26.3,07.2,04.9,0677.4,31.1
2021-08-23T16:13:00Z,00000200,00000000,0006.38,0005.15,0003.58,0000.68,0001.12,0000.30,0001.65,0001.57,0001.15,20.0,26.3,07.2,04.9,0677.4,31.1
2021-08-23T16:14:00Z,00000200,00000000,0006.58,0004.89,0003.67,0000.10,0000.63,0000.53,0001.60,0002.00,0001.26,20.1,26.2,07.3,05.0,0677.4,31.1
2021-08-23T16:15:00Z,00000200,00000000,0006.11,0005.22,0003.54,0000.21,0000.89,0001.01,0001.09,0000.89,0001.10,20.1,26.3,07.3,05.0,0677.4,31.1
2021-08-23T16:16:00Z,00000200,00000000,0006.61,0004.83,0003.29,0000.51,0000.67,0000.54,0001.53,0001.41,0001.18,20.1,26.3,07.4,05.1,0677.4,31.1
2021-08-23T16:17:00Z,00000200,00000000,0005.46,0003.67,0002.62,0000.56,0000.55,0000.04,0001.52,0001.61,0001.23,20.1,26.3,07.6,05.2,0677.3,31.1
2021-08-23T16:18:00Z,00000200,00000000,0004.81,0004.02,0002.62,0000.73,0000.33,0000.26,0000.97,0001.07,0000.52,20.1,26.3,07.8,05.4,0677.4,31.1
2021-08-23T16:19:00Z,00000200,00000000,0005.10,0003.60,0002.37,0000.13,0000.70,0000.09,0001.08,0000.90,0000.95,20.1,26.3,07.8,05.4,0677.4,31.1
2021-08-23T16:20:00Z,00000200,00000000,0005.22,0004.18,0002.79,0000.13,0000.60,0000.41,0001.18,0000.86,0000.72,20.1,26.3,07.8,05.3,0677.4,31.1
2021-08-23T16:21:00Z,00000200,00000000,0004.56,0004.20,0002.57,-000.00,0000.55,0000.38,0000.87,0000.83,0000.86,20.1,26.3,07.7,05.3,0677.4,31.1
2021-08-23T16:22:00Z,00000200,00000000,0005.60,0003.45,0002.43,0000.36,0000.59,0000.02,0000.98,0001.36,0000.83,20.1,26.3,07.8,05.4,0677.4,31.1
2021-08-23T16:23:00Z,00000200,00000000,0005.19,0003.46,0002.30,0000.70,0000.26,0000.03,0001.48,0001.08,0000.88,20.1,26.3,07.9,05.5,0677.4,31.1
2021-08-23T16:24:00Z,00000200,00000000,0004.68,0003.59,0002.35,-000.04,0000.62,0000.03,0001.32,0001.11,0000.87,20.1,26.3,08.1,05.6,0677.3,31.1
2021-08-23T16:25:00Z,00000200,00000000,0004.37,0003.48,0002.60,0000.12,0000.31,0000.42,0000.92,0000.91,0000.67,20.1,26.3,08.1,05.6,0677.4,31.1
2021-08-23T16:26:00Z,00000200,00000000,0004.45,0002.92,0002.19,-000.35,0000.45,0000.53,0000.81,0000.49,0000.62,20.1,26.3,08.2,05.7,0677.4,31.1
2021-08-23T16:27:00Z,00000200,00000000,0004.28,0002.99,0002.09,0000.11,0000.50,-000.06,0000.90,0001.30,0001.10,20.1,26.3,08.2,05.7,0677.4,31.1
2021-08-23T16:28:00Z,00000200,00000000,0003.28,0002.51,0001.46,0000.15,0000.33,0000.08,0000.66,0000.26,0000.13,20.1,26.3,08.2,05.7,0677.4,31.1
2021-08-23T16:29:00Z,00000200,00000000,0003.48,0002.46,0001.80,-000.04,0000.49,0000.19,0000.66,0000.99,0000.95,20.1,26.3,08.3,05.7,0677.3,31.1
2021-08-23T16:30:00Z,00000200,00000000,0004.21,0002.94,0001.50,-000.08,0000.36,0000.04,0000.90,0000.31,0000.04,20.1,26.3,08.3,05.7,0677.4,31.1
2021-08-23T16:31:00Z,00000200,00000000,0003.19,0002.61,0001.85,0000.16,0000.32,0000.20,0000.80,0000.79,0000.60,20.1,26.3,08.2,05.6,0677.4,31.1
2021-08-23T16:32:00Z,00000200,00000000,0003.49,0002.58,0001.43,-000.17,0000.39,-000.12,0000.78,0000.82,0000.74,20.1,26.3,08.3,05.8,0677.4,31.1
2021-08-23T16:33:00Z,00000200,00000000,0002.43,0002.05,0001.12,0000.05,0000.20,0000.08,0000.59,0000.42,0000.80,20.1,26.3,08.4,05.8,0677.4,31.1
2021-08-23T16:34:00Z,00000200,00000000,0001.88,0002.13,0001.38,0000.16,0000.45,0000.12,0000.41,0000.98,0000.25,20.1,26.3,08.4,05.8,0677.4,31.1
2021-08-23T16:35:00Z,00000200,00000000,0002.19,0002.38,0001.07,0000.39,0000.14,0000.27,0000.70,0000.25,0000.41,20.1,26.3,08.5,05.8,0677.4,31.1
2021-08-23T16:36:00Z,00000200,00000000,0001.63,0001.98,0001.17,-000.02,0000.40,-000.03,0000.31,0000.38,0000.49,20.1,26.3,08.5,05.9,0677.4,31.1
2021-08-23T16:37:00Z,00000200,00000000,0002.13,0002.51,0001.60,0000.57,0000.36,0000.52,0000.95,0000.64,0000.36,20.1,26.3,08.5,05.8,0677.4,31.1
2021-08-23T16:38:00Z,00000200,00000000,0002.34,0002.56,0001.41,-000.67,0000.22,0000.05,0000.45,0000.67,0000.66,20.1,26.3,08.5,05.9,0677.4,31.1
2021-08-23T16:39:00Z,00000200,00000000,0003.53,0002.71,0001.58,0000.24,0000.46,0000.14,0000.63,0000.87,0000.19,20.1,26.3,08.5,05.8,0677.4,31.1
2021-08-23T16:40:00Z,00000200,00000000,0002.72,0002.73,0001.73,0000.17,0000.48,0000.26,0000.89,0000.38,0000.74,20.1,26.3,08.6,05.9,0677.4,31.1
2021-08-23T16:41:00Z,00000200,00000000,0003.10,0002.36,0001.34,0000.43,0000.34,-000.18,0000.48,0000.45,0000.28,20.1,26.3,08.5,05.9,0677.4,31.1
2021-08-23T16:42:00Z,00000200,00000000,0003.40,0002.85,0001.57,0000.54,0000.27,0000.29,0000.95,0001.02,0000.60,20.1,26.3,08.5,05.9,0677.5,31.1
2021-08-23T16:43:00Z,00000200,00000000,0003.17,0002.48,0001.67,-000.30,0000.19,-000.15,0000.43,0000.51,0000.71,20.1,26.3,08.6,05.9,0677.5,31.1
2021-08-23T16:44:00Z,00000200,00000000,0003.74,0002.08,0001.58,0000.38,0000.36,0000.32,0000.77,0000.66,0000.75,20.1,26.3,08.6,05.9,0677.5,31.1
2021-08-23T16:45:00Z,00000200,00000000,0002.74,0002.45,0001.82,0000.02,0000.15,0000.37,0000.58,0000.58,0000.22,20.2,26.4,08.6,05.9,0677.4,31.1
2021-08-23T16:46:00Z,00000200,00000000,0002.95,0002.81,0001.34,-000.42,0000.50,-000.01,0000.68,0000.54,0000.36,20.2,26.4,08.5,05.8,0677.4,31.1
2021-08-23T16:47:00Z,00000200,00000000,0003.76,0003.07,0002.15,-000.33,0000.49,0000.21,0000.60,0000.49,0000.49,20.2,26.4,08.4,05.8,0677.5,31.1
2021-08-23T16:48:00Z,00000200,00000000,0004.40,0002.55,0001.61,-000.06,0000.41,-000.01,0000.42,0000.93,0000.61,20.1,26.4,08.5,05.8,0677.5,31.1
2021-08-23T16:49:00Z,00000200,00000000,0004.05,0002.87,0002.15,0000.04,0000.39,0000.11,0001.13,0000.62,0000.59,20.2,26.4,08.6,05.9,0677.5,31.1
2021-08-23T16:50:00Z,00000200,00000000,0003.22,0003.00,0001.84,0000.27,0000.43,0000.09,0000.73,0000.67,0000.66,20.1,26.3,08.5,05.9,0677.5,31.1
2021-08-23T16:51:00Z,00000200,00000000,0003.37,0002.78,0001.76,-000.01,0000.67,-000.09,0000.41,0000.80,0000.30,20.1,26.3,08.5,05.9,0677.5,31.1
2021-08-23T16:52:00Z,00000200,00000000,0002.93,0002.76,0001.67,0000.24,0000.61,-000.06,0000.87,0000.58,0000.68,20.1,26.3,08.6,05.9,0677.5,31.1
2021-08-23T16:53:00Z,00000200,00000000,0003.03,0002.43,0001.66,0000.27,0000.18,0000.45,0000.76,0000.65,0000.10,20.2,26.4,08.4,05.8,0677.5,31.1
2021-08-23T16:54:00Z,00000200,00000000,0003.99,0002.35,0001.73,0000.40,0000.30,0000.14,0000.55,0000.76,0000.59,20.1,26.3,08.4,05.8,0677.5,31.1
2021-08-23T16:55:00Z,00000200,00000000,0003.17,0002.52,0001.44,-000.05,0000.86,0000.03,0000.64,0000.28,0000.70,20.2,26.4,08.4,05.8,0677.5,31.1
2021-08-23T16:56:00Z,00000200,00000000,0003.99,0002.64,0001.51,-000.03,0000.40,0000.30,0000.50,0000.43,0000.24,20.2,26.4,08.4,05.8,0677.5,31.1
2021-08-23T16:57:00Z,00000200,40000000,,,,,,,0000.12,-000.14,0000.52,20.2,26.4,08.0,05.5,0677.7,31.1
2021-08-23T16:58:00Z,00000200,60000000,,,,,,,0000.02,0000.52,-000.38,20.0,26.5,08.1,05.5,0676.5,31.1
2021-08-23T16:59:00Z,00000200,20000000,,,,,,,0000.40,0000.35,0000.38,20.0,26.6,08.2,05.5,0676.5,31.1
